Location: Ahausen
(50.4985°N, 8.2722°E)
Time: 07:45:26
(UTC+00:00)

CUBESAT XI-V - Visible Passes

Search period start: 25 June 2022 00:00
Search period end: 05 July 2022 00:00
Orbit: 666 x 692 km, 98.1° (Epoch: 24 June)

Date Brightness Start Highest point End Pass type
(mag) Time Alt. Az. Time Alt. Az. Time Alt. Az.
25 Jun ? 01:00:32 14° SSE 01:04:33 89° WSW 01:09:12 10° NNW visible
25 Jun ? 23:59:08 10° ESE 00:03:03 28° ENE 00:06:57 10° N visible
26 Jun ? 01:36:29 14° SSW 01:40:10 43° W 01:44:35 10° NNW visible
27 Jun ? 00:34:03 11° SE 00:38:21 54° ENE 00:42:52 10° N visible
27 Jun ? 02:12:27 10° SW 02:15:58 21° W 02:19:29 10° NW visible
27 Jun ? 23:34:01 10° E 23:37:04 18° ENE 23:40:07 10° NNE visible
28 Jun ? 01:10:00 15° S 01:13:51 74° WSW 01:18:28 10° NNW visible
29 Jun ? 00:08:09 10° SE 00:12:15 33° ENE 00:16:20 10° N visible
29 Jun ? 01:45:57 14° SSW 01:49:30 35° W 01:53:45 10° NNW visible
29 Jun ? 23:09:45 10° ENE 23:11:10 11° NE 23:12:35 10° NE visible
30 Jun ? 00:43:30 13° SSE 00:47:36 65° ENE 00:52:10 10° N visible
30 Jun ? 02:22:14 10° SW 02:25:19 18° W 02:28:26 10° NW visible
30 Jun ? 23:42:50 10° ESE 23:46:14 21° ENE 23:49:37 10° NNE visible
01 Jul ? 01:19:27 16° S 01:23:07 61° WSW 01:27:41 10° NNW visible
02 Jul ? 00:17:11 10° SE 00:21:26 39° ENE 00:25:42 10° N visible
02 Jul ? 01:55:23 13° SSW 01:58:49 29° W 02:02:51 10° NNW visible
02 Jul ? 23:18:07 10° E 23:20:17 13° NE 23:22:26 10° NNE visible
03 Jul ? 00:52:57 14° SSE 00:56:50 79° ENE 01:01:26 10° NNW visible
03 Jul ? 02:32:09 10° WSW 02:34:42 15° W 02:37:15 10° NW visible
03 Jul ? 23:51:42 10° ESE 23:55:23 24° ENE 23:59:03 10° N visible
04 Jul ? 01:28:54 16° S 01:32:24 50° W 01:36:53 10° NNW visible
